Location: North Bay Shore
(40.7362°N, 73.2626°W)
Time: 05:34:26
(UTC+00:00)

ATLAS 2AS CENTAUR R/B - Pass Details

Date: 29 October 2020
Orbit: 939 x 1273 km, 63.7° (Epoch: 23 November)

Event Time Altitude Azimuth Distance (km) Brightness Sun altitude
Rises 23:37:48 0° 328° (NNW) 4,148 6.2 -20.5°
Reaches altitude 10° 23:40:58 10° 337° (NNW) 3,137 5.4 -21.1°
Maximum altitude 23:47:43 35° 41° (NE) 1,752 3.5 -22.4°
Enters shadow 23:48:39 34° 57° (ENE) 1,774 3.4 -22.5°
